Content
SEND FEEDBACK

Daily
Averages
Monthly
Summary
United States of America

MAURICEVILLE, TEXAS


Home > North America > United States > Texas
Elevation: 20 feet     Latitude: 30 14N     Longitude: 093 44W

WEATHER
 
SELECT A DAY
Number of Records: 115,926;   Date Range: 8/25/05 - 10/29/14
 
SHARE

PRINT THIS DATA

[ ← Previous Day ]
WEATHER ALMANAC - MARCH 19, 2013
[ Next Day → ]
[ °C ]   °F
Weather ElementAverageHighLow
Temperature66.5 °F77 °F (2:55 pm)55.4 °F (6:35 am)
Dewpoint55.9 °F64.4 °F (12:35 am)35.6 °F (5:15 am)
Humidity70.2 %100 % (12:35 am)39 % (5:15 am)
Barometer29.97 in30.02 in (9:15 am)29.92 in (12:35 am)
Wind Speed8 mph17.3 mph (4:35 am)
Wind Gust23 mph (4:35 am)
Weather ElementAverage
Visibility9.4 mi
Wind DirectionE (93.8 °)

Weather ElementTotal
Precipitation---
Cooling Degree Days1.2 (Base 65)
Growing Degree Days16.2 (Base 50)
Averaged from 71 records on March 19, 2013
WEATHER CONDITIONS BREAKOUT
WIND DIRECTION BREAKOUT
WEATHER BY HOUR - MARCH 19, 2013
[ °C ]   °F
Local TimeTemperatureDewpointHumidityBarometerVisibilityWind DirectionWind SpeedGust SpeedPrecipitationEventsConditions
12:35 AM64.4 °F64.4 °F100 %29.92 in5.0 miNorth (350°)3.5 mphClear
12:55 AM66.2 °F64.4 °F94 %29.92 in7.0 miNorth (360°)5.8 mphMostly Cloudy
1:15 AM66.2 °F62.6 °F88 %29.92 in7.0 miNorth (10°)9.2 mphMostly Cloudy
1:35 AM68.0 °F62.6 °F83 %29.93 in10.0 miNorth (10°)8.1 mphScattered Clouds
1:55 AM66.2 °F60.8 °F83 %29.93 in10.0 miNorth (10°)6.9 mphClear
2:15 AM68.0 °F60.8 °F78 %29.93 in10.0 miNNE (20°)10.4 mphClear
2:35 AM66.2 °F60.8 °F83 %29.94 in10.0 miNNE (20°)9.2 mphClear
2:55 AM66.2 °F60.8 °F83 %29.95 in10.0 miNNE (20°)10.4 mphClear
3:15 AM66.2 °F60.8 °F83 %29.95 in10.0 miCalmMostly Cloudy
3:35 AM64.4 °F59.0 °F83 %29.96 in10.0 miNNE (30°)12.7 mph17.3 mphScattered Clouds
3:55 AM64.4 °F55.4 °F73 %29.96 in10.0 miNE (50°)15.0 mph21.9 mphClear
4:15 AM62.6 °F51.8 °F68 %29.96 in10.0 miNE (50°)13.8 mph19.6 mphClear
4:35 AM62.6 °F50.0 °F63 %29.96 in10.0 miNNE (30°)17.3 mph23.0 mphClear
4:55 AM60.8 °F41.0 °F48 %29.97 in10.0 miNE (40°)16.1 mphClear
5:15 AM60.8 °F35.6 °F39 %29.98 in10.0 miNE (40°)16.1 mph23.0 mphClear
5:35 AM59.0 °F37.4 °F45 %29.98 in10.0 miENE (60°)15.0 mph18.4 mphClear
5:55 AM59.0 °F41.0 °F51 %29.98 in10.0 miNNE (30°)8.1 mphClear
6:15 AM57.2 °F42.8 °F59 %29.99 in10.0 miNE (40°)11.5 mphClear
6:35 AM55.4 °F42.8 °F63 %30.00 in10.0 miNE (40°)8.1 mphClear
6:55 AM55.4 °F42.8 °F63 %29.99 in10.0 miNE (50°)12.7 mphClear
7:15 AM55.4 °F44.6 °F67 %30.00 in10.0 miENE (60°)10.4 mph16.1 mphClear
7:35 AM55.4 °F44.6 °F67 %30.00 in10.0 miNE (50°)10.4 mphClear
7:55 AM55.4 °F44.6 °F67 %30.00 in10.0 miENE (70°)6.9 mphClear
8:15 AM55.4 °F44.6 °F67 %30.01 in10.0 miCalmClear
8:35 AM57.2 °F44.6 °F63 %30.01 in10.0 miENE (70°)10.4 mphClear
8:55 AM59.0 °F44.6 °F59 %30.01 in10.0 miENE (70°)9.2 mph16.1 mphClear
9:15 AM60.8 °F46.4 °F59 %30.02 in10.0 miEast (80°)10.4 mph16.1 mphClear
9:35 AM60.8 °F44.6 °F55 %30.02 in10.0 miEast (80°)13.8 mphClear
9:55 AM62.6 °F46.4 °F55 %30.02 in10.0 miEast (90°)13.8 mph19.6 mphClear
10:15 AM64.4 °F46.4 °F52 %30.01 in10.0 miEast (100°)12.7 mphClear
10:35 AM64.4 °F46.4 °F52 %30.02 in10.0 miESE (110°)15.0 mph19.6 mphClear
10:55 AM68.0 °F50.0 °F52 %30.02 in10.0 miEast (100°)12.7 mphClear
11:15 AM68.0 °F50.0 °F52 %30.02 in10.0 miESE (110°)9.2 mphClear
11:35 AM69.8 °F51.8 °F53 %30.02 in5.0 miESE (110°)8.1 mphHaze
11:55 AM71.6 °F53.6 °F53 %30.02 in4.0 miEast (100°)9.2 mphHaze
12:15 PM71.6 °F53.6 °F53 %30.02 in10.0 miCalmClear
12:35 PM73.4 °F53.6 °F50 %30.01 in7.0 miENE (70°)8.1 mphClear
12:55 PM73.4 °F55.4 °F53 %30.01 in10.0 miEast (80°)6.9 mphClear
1:15 PM73.4 °F55.4 °F53 %30.00 in10.0 miESE (120°)4.6 mphClear
1:35 PM75.2 °F59.0 °F57 %30.00 in10.0 miSE (130°)9.2 mphClear
1:55 PM73.4 °F59.0 °F61 %30.00 in10.0 miESE (110°)5.8 mphClear
2:15 PM75.2 °F59.0 °F57 %29.98 in10.0 miCalmClear
2:35 PM75.2 °F60.8 °F61 %29.97 in10.0 miESE (110°)10.4 mphClear
2:55 PM77.0 °F60.8 °F57 %29.96 in10.0 miSE (130°)9.2 mph16.1 mphClear
3:15 PM77.0 °F60.8 °F57 %29.95 in10.0 miEast (100°)9.2 mphClear
3:35 PM73.4 °F60.8 °F65 %29.95 in10.0 miEast (80°)5.8 mphScattered Clouds
3:55 PM73.4 °F60.8 °F65 %29.95 in10.0 miEast (90°)11.5 mphMostly Cloudy
4:15 PM73.4 °F60.8 °F65 %29.94 in10.0 miESE (110°)9.2 mphMostly Cloudy
4:35 PM73.4 °F60.8 °F65 %29.94 in10.0 miESE (120°)6.9 mphScattered Clouds
4:55 PM75.2 °F62.6 °F65 %29.93 in10.0 miSSE (160°)8.1 mphClear
5:15 PM73.4 °F64.4 °F73 %29.93 in10.0 miSSE (150°)8.1 mphClear
5:35 PM73.4 °F62.6 °F69 %29.93 in10.0 miSSE (150°)6.9 mphClear
5:55 PM73.4 °F62.6 °F69 %29.93 in10.0 miSE (140°)6.9 mphClear
6:15 PM71.6 °F64.4 °F78 %29.93 in10.0 miSSE (150°)5.8 mphClear
6:35 PM71.6 °F64.4 °F78 %29.94 in10.0 miSouth (170°)6.9 mphScattered Clouds
6:55 PM69.8 °F64.4 °F83 %29.94 in10.0 miSSE (160°)5.8 mphMostly Cloudy
7:15 PM68.0 °F62.6 °F83 %29.95 in10.0 miSSE (160°)5.8 mphMostly Cloudy
7:35 PM68.0 °F64.4 °F88 %29.95 in10.0 miSSE (150°)5.8 mphMostly Cloudy
7:55 PM68.0 °F62.6 °F83 %29.95 in10.0 miSSE (150°)5.8 mphOvercast
8:15 PM66.2 °F62.6 °F88 %29.95 in10.0 miSSE (150°)6.9 mphOvercast
8:35 PM66.2 °F62.6 °F88 %29.96 in10.0 miSSE (160°)4.6 mphMostly Cloudy
8:55 PM66.2 °F64.4 °F94 %29.97 in10.0 miSE (130°)3.5 mphOvercast
9:15 PM66.2 °F62.6 °F88 %29.98 in10.0 miESE (120°)3.5 mphOvercast
9:35 PM66.2 °F62.6 °F88 %29.98 in10.0 miCalmMostly Cloudy
9:55 PM66.2 °F62.6 °F88 %29.99 in10.0 miSE (130°)4.6 mphMostly Cloudy
10:15 PM66.2 °F62.6 °F88 %29.99 in7.0 miSSE (150°)3.5 mphMostly Cloudy
10:35 PM64.4 °F62.6 °F94 %29.99 in7.0 miCalmScattered Clouds
10:55 PM64.4 °F62.6 °F94 %29.98 in7.0 miESE (110°)3.5 mphClear
11:15 PM64.4 °F62.6 °F94 %29.99 in7.0 miENE (70°)3.5 mphClear
11:35 PM64.4 °F62.6 °F94 %30.00 in7.0 miNorth (360°)3.5 mphScattered Clouds
11:55 PM64.4 °F62.6 °F94 %29.99 in7.0 miNNE (30°)4.6 mphScattered Clouds
Hourly data recorded from KORG, located miles away from Mauriceville, Texas







STORIES FROM OUR PARTNERS